Find ICOR SV

NORAD ID: 68127 Int'l Des: 2026-046 Owner: LMSSD Country: US decayed
LEOCIRCULARRETROGRADE

Re-entered — Apr 21, 2026

正在加载3D地球...

About ICOR SV

ICOR SV (NORAD 68127) is a satellite launched Mar 12, 2026 by LMSSD of US. It re-entered the atmosphere on Apr 21, 2026. with a mass of 1100.00 kg.

高度历史

Loading altitude history...

两行轨道根数

1 68127U 26046A 26109.59295808 .02873854 13124-4 51214-3 0 9994
2 68127 123.0635 36.1737 0038563 269.9104 89.7570 16.29449949 6143
Epoch: Apr 19, 2026 • Age: 1308 hours

当前状态

Position data unavailable
发射日期 Mar 12, 2026
运行时间 0.2 years
衰减日期 Apr 21, 2026
类型 other

技术详情

分类 Payload
质量 1100.00 kg
干质量 1100.00 kg
总质量 1100.00 kg
长度 0.30 m
直径 0.10 m
跨度 0.30 m
形状 Box
制造商 LMSSD
平台类型 LM-400
阶段状态 Reentered
所有者/国家 LMSSD/US

Most Searched